Weather History for Wiscasset, ME

Change the Weather History Date:

Sunday, July 21, 2013

  Actual Average Record
Temperature  
Mean Temperature 67 °F -  
Max Temperature 75 °F 74 °F 88 °F (2011)
Min Temperature 60 °F 54 °F 46 °F (1999)
Cooling Degree Days 2    
Growing Degree Days 17 (Base 50)    
Moisture  
Dew Point 57 °F    
Average Humidity 70    
Maximum Humidity 93    
Minimum Humidity 46    
Precipitation  
Precipitation 0.00 in - - ()
Sea Level Pressure  
Sea Level Pressure 29.96 in    
Wind  
Wind Speed 2 mph (SSE)    
Max Wind Speed 9 mph    
Max Gust Speed -    
Visibility 10 miles    
Events      
Averages and records for this station are not official NWS values.
T = Trace of Precipitation, MM = Missing Value Source: NWS Daily Summary

Daily Weather History Graph

Daily Weather History Graph

Search for Another Location

Airport:

Trip Planner

Search our weather history database for the weather conditions in past years. The results will help you decide how hot, cold, wet, or windy it might be!

Date:

Astronomy

Jul. 21, 2013 Rise Set
Actual Time 5:15 AM EDT 8:14 PM EDT
Civil Twilight 4:41 AM EDT 8:48 PM EDT
Nautical Twilight 3:57 AM EDT 9:31 PM EDT
Astronomical Twilight 3:06 AM EDT 10:23 PM EDT
Moon 7:07 PM EDT (7/21) 3:58 AM EDT (7/21)
Length of Visible Light 16h 06m
Length of Day
14h 58m
Waxing Gibbous, 98% of the Moon is Illuminated
Jul 21
Waxing Gibbous
Jul 22
Full
Jul 29
Last Quarter
Aug 6
New
Aug 14
First Quarter

Hourly Weather History & Observations

Time (EDT) Temp. Dew Point Humidity Pressure Visibility Wind Dir Wind Speed Gust Speed Precip Events Conditions
12:53 AM 66.9 °F 62.1 °F 84% 29.81 in 10.0 mi Calm Calm - N/A   Clear
1:53 AM 64.9 °F 61.0 °F 87% 29.83 in 10.0 mi Calm Calm - N/A   Clear
2:53 AM 64.0 °F 60.1 °F 87% 29.84 in 10.0 mi Calm Calm - N/A   Clear
3:53 AM 63.0 °F 60.1 °F 90% 29.87 in 10.0 mi Calm Calm - N/A   Clear
4:53 AM 61.0 °F 57.9 °F 90% 29.89 in 10.0 mi Calm Calm - N/A   Clear
5:53 AM 61.0 °F 57.9 °F 90% 29.91 in 10.0 mi Calm Calm - N/A   Partly Cloudy
6:53 AM 64.9 °F 60.1 °F 84% 29.93 in 10.0 mi Calm Calm - N/A   Clear
7:53 AM 69.1 °F 55.0 °F 61% 29.94 in 10.0 mi East 4.6 mph - N/A   Scattered Clouds
8:53 AM 71.1 °F 55.0 °F 57% 29.96 in 10.0 mi Variable 4.6 mph - N/A   Mostly Cloudy
9:53 AM 72.0 °F 55.9 °F 57% 29.97 in 10.0 mi Calm Calm - N/A   Overcast
10:53 AM 73.0 °F 55.9 °F 55% 29.98 in 10.0 mi Calm Calm - N/A   Scattered Clouds
11:53 AM 73.9 °F 55.0 °F 52% 29.99 in 10.0 mi South 8.1 mph - N/A   Partly Cloudy
12:53 PM 73.0 °F 52.0 °F 48% 30.00 in 10.0 mi South 6.9 mph - N/A   Overcast
1:53 PM 73.9 °F 52.0 °F 46% 30.00 in 10.0 mi South 8.1 mph - N/A   Scattered Clouds
2:53 PM 73.9 °F 55.9 °F 53% 29.99 in 10.0 mi SSW 8.1 mph - N/A   Scattered Clouds
3:53 PM 73.9 °F 53.1 °F 48% 29.99 in 10.0 mi South 6.9 mph - N/A   Clear
4:53 PM 73.0 °F 55.0 °F 53% 29.99 in 10.0 mi SE 9.2 mph - N/A   Partly Cloudy
5:53 PM 72.0 °F 55.9 °F 57% 29.99 in 10.0 mi SE 4.6 mph - N/A   Clear
6:53 PM 70.0 °F 57.0 °F 63% 29.99 in 10.0 mi Variable 3.5 mph - N/A   Clear
7:53 PM 68.0 °F 59.0 °F 73% 29.99 in 10.0 mi Calm Calm - N/A   Clear
8:53 PM 66.0 °F 59.0 °F 78% 30.00 in 10.0 mi Calm Calm - N/A   Clear
9:53 PM 62.1 °F 59.0 °F 90% 30.02 in 10.0 mi Calm Calm - N/A   Clear
10:53 PM 61.0 °F 57.9 °F 90% 30.04 in 10.0 mi Calm Calm - N/A   Clear
11:53 PM 60.1 °F 57.9 °F 93% 30.04 in 10.0 mi Calm Calm - N/A   Partly Cloudy